Theta_e
337 333 323 325 322 324 332 338 340 340 341 338 334 335 333 326 324 322 321 320 319 319 320 321 321 324 325 325 324 325 325 327 325 321 321 324 324 331 332 333 334 333 333
338 330 324 327 324 322 328 334 339 340 341 339 336 337 330 326 324 323 322 321 320 319 320 323 323 324 326 325 325 327 328 328 325 326 323 322 324 324 334 335 332 321 324
339 327 327 329 329 324 322 324 332 338 340 339 337 338 328 325 324 324 323 322 321 320 320 324 324 324 326 325 326 327 328 327 331 337 337 336 326 322 322 324 319 320 320
342 335 330 331 332 328 327 325 325 331 336 338 338 337 327 325 325 324 324 323 322 321 320 323 326 325 326 328 331 332 333 332 336 339 338 336 334 325 323 320 319 319 319
342 344 336 332 333 332 330 328 327 326 328 333 334 333 326 325 325 325 325 324 323 323 322 321 327 330 328 329 331 331 332 333 335 338 337 337 337 327 326 325 322 321 324
341 344 339 334 333 333 332 330 329 328 327 327 329 328 326 325 325 325 325 325 325 324 323 322 322 327 330 331 332 332 332 330 337 338 337 337 338 328 328 329 328 324 321
340 344 339 334 334 333 333 332 331 329 328 327 325 325 325 325 326 326 326 326 325 325 324 324 323 322 323 327 331 334 331 331 336 337 336 335 337 325 330 329 328 327 326
341 345 332 333 334 334 333 334 333 331 330 328 327 326 326 326 326 326 326 326 326 325 325 325 324 324 324 323 323 327 333 333 334 337 338 340 338 331 327 328 330 329 328
341 344 324 329 333 334 333 334 334 333 332 331 330 329 328 328 328 327 327 327 326 325 326 326 326 325 324 324 324 324 324 324 334 337 336 338 335 333 332 331 328 329 330
340 344 326 328 330 333 334 333 334 335 335 334 332 331 331 330 329 328 328 328 328 327 326 326 326 326 326 325 325 324 324 324 323 336 334 336 336 334 333 334 333 331 328
340 341 344 343 333 333 336 334 334 335 336 335 334 333 332 332 334 334 330 332 330 328 328 328 328 327 327 327 326 326 327 328 337 337 337 336 335 329 333 334 333 334 334
339 339 341 343 343 341 340 339 333 335 336 335 335 334 333 334 338 339 337 333 332 329 328 328 329 329 329 333 336 336 331 335 338 338 337 336 335 331 332 334 334 333 333
342 339 340 342 342 341 338 342 340 340 340 339 340 339 336 338 338 338 336 335 330 330 331 333 333 333 337 337 338 337 335 336 336 336 337 335 334 332 332 333 334 334 334
342 341 341 342 343 342 340 341 340 340 340 343 341 338 337 337 337 337 336 336 336 336 335 335 335 333 333 336 335 335 333 334 334 334 334 333 333 333 333 333 334 333 332
341 342 342 342 342 341 341 341 341 341 341 339 339 336 336 336 336 336 336 335 335 335 334 333 332 331 333 330 334 334 331 332 332 332 332 331 332 333 334 333 333 331 330
340 342 342 342 341 341 340 341 339 339 339 338 339 338 337 336 336 336 335 334 333 331 332 331 331 331 331 332 330 329 330 330 329 330 331 329 329 332 332 331 330 329 329
339 342 344 342 341 341 338 335 337 339 337 336 337 338 337 334 334 333 327 320 328 328 322 329 329 329 329 330 328 332 331 331 331 330 330 329 328 330 329 328 328 328 326
338 342 347 344 343 341 339 334 339 336 336 335 332 332 333 333 332 328 325 319 316 324 324 327 328 328 329 328 328 330 329 330 329 330 329 329 329 330 329 328 328 326 325
332 341 345 343 343 343 339 336 336 336 338 334 333 333 332 331 326 325 323 318 313 319 321 323 321 326 326 326 325 326 326 327 326 327 327 327 326 327 326 325 324 323 320
330 343 344 342 343 341 341 339 338 338 337 335 333 330 328 326 324 322 320 316 320 318 316 319 323 323 325 325 323 326 326 326 325 326 325 325 324 324 323 322 320 317 314
343 344 342 340 341 341 339 338 336 336 335 332 328 326 325 325 322 322 323 318 315 313 313 318 321 321 323 323 322 322 324 324 324 324 323 323 323 322 319 316 315 314 310
333 338 339 339 338 338 338 336 336 335 332 328 327 327 326 327 326 324 319 315 316 319 316 312 320 320 322 321 321 320 320 319 320 320 321 321 320 320 318 315 312 309 308
336 337 337 338 337 336 336 335 335 332 329 328 326 326 325 323 322 319 317 319 321 321 321 319 314 313 318 320 318 321 319 318 318 318 318 318 318 318 317 314 312 310 306
334 335 335 337 336 336 335 333 330 329 327 326 326 324 321 320 319 319 319 320 320 319 319 317 314 312 316 318 318 319 320 320 316 316 316 316 315 315 313 312 311 310 308
330 333 334 335 335 334 332 330 329 330 326 326 324 322 321 319 319 317 315 314 313 313 313 312 311 309 311 314 316 317 316 317 317 316 313 313 313 311 311 311 310 308 307
330 331 332 331 331 329 331 331 330 328 326 325 324 322 321 318 315 315 314 314 313 312 311 311 310 307 306 310 311 313 314 315 314 314 314 311 312 310 310 310 310 309 306
Wind_Speed
12 17 19 17 15 17 17 18 17 17 16 15 15 12 9 8 7 8 9 10 10 10 10 10 11 10 10 11 11 12 13 13 14 14 14 15 16 16 18 19 14 12 13
17 18 21 18 16 17 16 17 17 16 16 14 15 12 10 8 7 8 8 9 9 9 10 10 10 11 10 11 12 12 12 13 15 16 13 13 14 14 14 15 12 12 10
19 21 22 20 17 16 16 15 16 16 15 15 14 12 10 9 8 8 8 8 8 8 9 9 10 11 11 11 12 12 12 13 17 18 19 10 10 12 11 10 9 10 9
17 21 23 21 18 16 16 15 15 15 15 15 14 13 11 9 8 7 7 7 7 7 7 8 9 10 11 11 12 11 10 13 17 15 12 9 7 10 10 10 9 10 8
15 17 21 21 18 16 16 15 14 14 15 15 15 13 12 10 9 8 7 7 7 7 7 7 8 8 9 10 8 8 9 9 13 12 6 7 5 6 8 10 9 8 11
14 15 18 21 19 17 16 15 14 14 14 14 14 13 12 11 10 8 8 8 7 7 7 7 8 7 8 7 6 6 7 9 10 7 3 6 8 2 7 7 9 8 9
15 17 18 22 20 19 17 16 15 14 14 14 14 13 12 11 10 10 9 9 8 8 7 7 8 8 7 7 6 6 6 8 4 4 4 6 8 3 5 8 8 8 8
15 13 17 23 21 20 18 17 15 15 15 14 14 13 13 12 11 10 10 10 9 8 8 8 7 8 8 8 8 8 7 6 8 2 2 8 8 4 4 6 7 7 7
15 14 16 21 21 20 19 18 17 17 16 16 15 15 14 13 13 12 12 11 11 10 9 9 9 8 8 9 8 8 8 8 5 4 6 9 10 7 7 6 6 7 7
14 15 15 21 21 21 21 20 19 18 17 17 17 16 16 15 14 13 13 12 12 10 10 10 10 10 10 10 9 10 9 9 8 5 8 12 12 9 9 8 8 7 8
14 15 15 16 19 20 20 21 20 19 18 18 18 18 17 15 14 14 13 12 12 12 11 11 10 10 10 11 11 11 11 9 10 8 13 12 15 13 12 11 10 9 8
15 15 15 15 16 16 14 16 19 19 19 19 19 18 18 13 13 14 15 14 14 13 12 11 11 11 11 8 15 13 12 9 13 12 15 13 16 14 15 14 12 10 9
16 16 15 16 16 16 14 12 13 12 12 13 15 14 13 15 18 17 17 17 15 12 10 8 9 10 9 11 12 12 12 16 17 14 13 15 16 14 16 15 13 13 13
15 17 16 14 15 15 13 12 12 12 11 15 16 18 16 16 17 13 18 13 12 10 6 6 9 9 10 8 9 12 9 8 7 8 8 10 10 11 16 16 15 16 16
13 16 16 17 15 15 15 13 12 12 12 10 13 15 15 13 14 16 17 14 9 3 6 7 9 13 7 9 8 10 9 7 8 7 4 6 9 10 13 14 15 14 11
12 15 17 20 16 14 15 15 17 14 13 17 14 14 15 13 11 10 11 10 1 2 4 4 9 6 5 6 7 5 7 8 11 11 9 10 8 16 21 17 12 6 4
11 12 19 20 14 16 18 19 12 17 23 24 18 15 15 16 13 16 15 18 5 6 6 4 5 5 6 6 8 6 6 8 9 11 11 13 15 20 17 13 6 4 5
10 12 19 20 19 18 17 16 17 24 21 20 17 14 18 20 17 24 29 5 12 6 5 4 3 4 4 8 10 9 9 8 5 10 9 13 18 23 15 14 11 7 10
10 14 22 19 18 13 17 19 20 18 16 16 17 13 14 17 13 17 19 11 7 11 5 6 6 10 9 13 15 14 12 12 9 13 9 14 15 15 15 9 12 11 11
6 14 18 14 16 20 19 17 17 14 11 11 7 7 7 12 17 13 10 10 12 7 4 5 6 6 6 14 16 15 14 13 13 15 19 13 12 10 11 11 10 9 8
14 15 10 14 16 17 19 19 15 15 13 10 8 7 8 12 16 15 9 9 9 7 6 5 5 6 6 15 14 12 12 13 18 18 15 19 15 14 11 8 6 6 6
11 11 10 11 12 17 17 16 16 15 14 10 8 5 9 11 12 14 11 10 5 3 5 8 10 7 11 16 8 11 10 14 18 18 19 21 17 16 13 12 10 6 5
11 11 10 9 10 15 16 18 19 16 11 9 8 13 9 10 11 12 13 13 15 17 22 15 13 11 13 16 16 12 5 10 17 21 20 19 19 18 17 15 13 10 8
12 12 12 11 13 18 15 14 13 10 10 11 10 8 10 9 11 13 12 12 12 14 17 16 15 12 14 15 16 18 20 11 7 9 21 22 20 20 19 17 16 14 11
14 13 14 14 16 16 15 12 11 8 8 7 6 9 11 10 9 8 5 3 5 7 10 10 12 12 14 14 14 14 16 21 17 8 9 19 23 21 21 20 18 15 14
13 17 21 21 20 15 12 9 9 9 9 8 9 8 7 6 6 5 4 5 6 8 8 8 9 10 12 13 12 15 14 13 17 17 15 10 17 23 22 22 21 20 18
Wind_Direction
165 181 174 170 165 162 164 170 174 178 179 177 174 167 156 145 133 123 118 114 108 104 102 107 113 118 120 119 116 113 111 104 102 97 99 98 99 98 95 91 82 104 101
167 182 178 174 168 162 165 170 178 186 186 184 180 174 166 159 150 136 125 116 110 106 107 110 115 119 121 119 117 113 109 104 96 89 88 95 102 104 108 119 142 106 107
171 179 180 178 172 164 163 168 178 191 191 188 186 182 179 171 164 150 137 128 120 113 112 116 123 126 126 122 115 110 104 98 90 81 87 80 102 107 114 126 108 101 107
170 175 181 182 176 169 165 166 174 187 193 192 190 190 188 183 175 164 152 142 134 128 125 123 126 131 131 128 121 111 104 100 94 84 92 115 117 111 114 112 105 104 102
165 172 184 184 182 177 172 172 173 182 189 193 195 196 195 191 186 180 169 159 154 149 142 137 135 136 137 136 134 121 116 114 98 89 106 138 127 114 122 119 107 107 109
162 166 193 187 188 188 184 181 179 184 190 194 200 202 202 199 196 194 187 178 177 169 163 160 156 154 153 158 155 144 135 118 100 86 144 154 171 139 139 137 128 122 119
163 184 198 192 194 195 192 189 188 190 195 200 204 208 209 209 208 206 202 199 191 187 186 183 179 178 184 184 182 182 164 144 112 153 193 192 238 201 151 142 144 141 137
167 181 198 192 196 200 198 196 197 198 202 207 212 214 216 219 218 216 214 214 209 206 204 206 205 203 205 204 206 209 210 196 135 257 231 219 212 227 180 162 158 157 150
176 178 189 193 199 202 202 202 203 205 208 212 215 218 222 224 225 223 222 221 223 216 220 219 222 226 225 229 229 229 226 226 197 239 232 243 257 244 213 194 182 177 168
185 182 194 195 200 202 204 205 208 211 214 217 219 220 223 226 230 229 226 227 228 230 228 228 231 236 242 246 245 247 244 239 226 244 255 249 250 253 223 211 208 196 184
191 188 187 187 198 204 208 210 211 214 217 220 222 223 224 227 237 237 232 230 236 231 235 240 242 248 253 259 267 266 256 249 263 246 256 244 256 242 227 216 211 210 208
202 195 187 184 186 191 193 216 212 217 221 222 227 230 227 213 229 234 239 235 232 232 235 247 257 261 265 282 276 274 269 249 256 246 256 253 251 234 225 223 218 219 221
216 204 198 193 190 186 188 206 192 210 211 219 217 224 227 216 225 215 239 245 234 237 248 255 274 281 260 244 271 269 252 243 242 227 262 246 246 224 218 221 221 225 222
216 209 202 199 195 191 196 198 197 204 213 212 214 218 219 226 229 222 237 235 229 232 228 253 281 287 283 271 272 282 259 253 248 246 232 217 219 211 215 218 222 225 233
216 206 203 199 200 199 189 199 198 205 218 231 226 224 226 231 238 236 236 236 218 216 240 238 248 255 269 262 268 248 251 252 242 248 221 203 209 198 189 196 213 225 225
217 202 201 217 204 202 196 201 203 194 214 212 207 216 217 225 243 261 270 239 45 212 237 236 231 235 249 255 261 237 242 247 246 235 205 194 203 159 153 166 206 210 212
221 211 204 215 218 207 205 216 199 204 208 218 219 220 231 236 233 233 327 359 271 260 241 232 227 238 249 251 256 239 248 261 231 225 214 200 194 194 180 181 240 229 254
223 206 208 223 243 219 222 207 198 218 218 228 223 231 260 257 257 307 280 293 299 303 229 196 183 224 257 218 244 236 239 239 238 196 216 214 213 193 203 224 239 269 278
215 205 224 227 238 222 217 213 220 225 216 231 227 236 257 268 254 273 264 186 267 243 214 214 213 192 209 238 246 258 241 253 235 182 218 195 192 206 205 238 264 269 269
184 194 220 217 222 216 220 210 198 209 219 205 223 223 284 248 261 248 183 169 216 219 236 243 212 212 193 246 244 240 239 226 226 207 202 230 185 230 245 254 251 262 257
153 187 195 211 214 213 209 199 199 187 194 191 221 230 265 256 246 234 255 226 230 239 248 234 242 244 218 247 265 243 231 224 230 222 207 196 209 211 215 235 259 254 244
170 185 185 195 202 201 206 200 186 186 181 203 199 232 256 231 248 243 220 199 188 252 264 240 215 217 236 255 243 247 247 241 232 223 219 227 227 228 225 216 221 212 239
131 149 164 178 191 197 188 186 187 185 203 205 214 257 237 232 216 211 206 216 245 253 258 260 249 236 231 249 233 236 232 238 241 240 233 230 229 228 225 223 220 220 225
119 128 139 152 174 176 179 194 178 196 206 210 238 233 198 191 195 214 235 256 268 270 264 266 263 244 227 239 249 243 249 281 216 243 243 236 234 228 225 226 228 221 223
111 117 128 136 147 157 165 169 170 192 203 219 188 208 218 217 228 241 241 268 281 280 275 265 266 256 235 240 233 253 251 258 257 271 247 240 233 228 232 234 230 225 229
123 127 132 140 149 154 160 172 170 162 164 174 183 186 202 215 215 212 231 269 289 291 291 282 269 258 245 238 240 238 247 251 257 257 261 255 245 241 239 238 237 235 233